{"data":{"norad_id":65550,"intl_designator":"2025-201A","name":"GEESAT-5 01","alt_names":[],"object_type":"PAYLOAD","status":"ACTIVE","operator":null,"country":"PRC","launch_date":"2025-09-08","launch_site_code":"YSLA","launch_vehicle":null,"mission":null,"orbit_class":"UNKNOWN","rcs_meters":null,"size_class":null,"mass_kg":null,"dimensions":null,"purposes":[],"wikipedia_slug":null,"has_3d_model":false,"image_url":null,"decayed_at":null,"tle_current":{"epoch":"2026-09-20T20:46:23.018016Z","epoch_age_seconds":121012,"freshness":"FRESH","line1":"1 65550U 25201A   26263.86554419  .00000762  00000+0  11647-3 0  9998","line2":"2 65550  49.9928 315.7264 0002727  51.8391 308.2793 14.84407515 56010","mean_motion":14.84407515,"eccentricity":0.0002727,"inclination_deg":49.9928,"raan_deg":315.7264,"arg_perigee_deg":51.8391,"mean_anomaly_deg":308.2793,"bstar":0.00011647,"rev_number":5601,"period_min":97.008401362075,"perigee_km":613.53903704634,"apogee_km":617.35333731663,"semimajor_km":6993.5831871815,"source":"CELESTRAK","updated_at":"2026-09-21T09:00:15.424044Z"}}}